Weather History for Carroll, IA

Change the Weather History Date:

Tuesday, December 3, 2013

  Actual Average Record
Temperature  
Mean Temperature 34 °F -  
Max Temperature 39 °F 34 °F 61 °F (1962)
Min Temperature 30 °F 16 °F -6 °F (1966)
Degree Days  
Heating Degree Days 30    
Moisture  
Dew Point 34 °F    
Average Humidity 98    
Maximum Humidity 100    
Minimum Humidity 75    
Precipitation  
Precipitation 0.01 in - - ()
Sea Level Pressure  
Sea Level Pressure 29.58 in    
Wind  
Wind Speed 6 mph (NNE)    
Max Wind Speed 15 mph    
Max Gust Speed 13 mph    
Visibility 3 miles    
Events Fog    
Averages and records for this station are not official NWS values.
T = Trace of Precipitation, MM = Missing Value Source: NWS Daily Summary

Daily Weather History Graph

Daily Weather History Graph

Search for Another Location

Airport:

Trip Planner

Search our weather history database for the weather conditions in past years. The results will help you decide how hot, cold, wet, or windy it might be!

Date:

Astronomy

Dec. 03, 2013 Rise Set
Actual Time 7:30 AM CST 4:47 PM CST
Civil Twilight 6:58 AM CST 5:19 PM CST
Nautical Twilight 6:23 AM CST 5:54 PM CST
Astronomical Twilight 5:50 AM CST 6:27 PM CST
Moon 7:59 AM CST (12/3) 5:52 PM CST (12/3)
Length of Visible Light 10h 20m
Length of Day
9h 17m
New Moon, 1% of the Moon is Illuminated
Dec 3
New Moon
Dec 9
First Quarter
Dec 17
Full
Dec 25
Last Quarter
Jan 1
New

Hourly Weather History & Observations

Time (CST) Temp. Windchill Dew Point Humidity Pressure Visibility Wind Dir Wind Speed Gust Speed Precip Events Conditions
12:15 AM 35.6 °F - 32.0 °F 87% 29.53 in 10.0 mi Calm Calm - N/A   Scattered Clouds
12:35 AM 35.6 °F 31.7 °F 32.0 °F 87% 29.53 in 10.0 mi South 4.6 mph - N/A   Partly Cloudy
12:55 AM 39.2 °F - 32.0 °F 75% 29.53 in 10.0 mi Calm Calm - N/A   Clear
1:15 AM 39.2 °F 35.9 °F 33.8 °F 81% 29.53 in 10.0 mi SSW 4.6 mph - N/A   Partly Cloudy
1:35 AM 39.2 °F 37.0 °F 33.8 °F 81% 29.52 in 10.0 mi South 3.5 mph - N/A   Partly Cloudy
1:55 AM 37.4 °F - 33.8 °F 87% 29.53 in 10.0 mi Calm Calm - N/A   Clear
2:15 AM 33.8 °F 30.8 °F 32.0 °F 93% 29.54 in 10.0 mi North 3.5 mph - N/A   Clear
2:35 AM 30.2 °F 22.6 °F 30.2 °F 100% 29.54 in 7.0 mi NNE 8.1 mph - N/A   Clear
2:55 AM - - - N/A% 29.54 in 6.0 mi Calm Calm - N/A   Clear
3:15 AM 32.0 °F - 32.0 °F 100% 29.53 in 7.0 mi Calm Calm - N/A   Clear
3:35 AM 32.0 °F - 32.0 °F 100% 29.54 in 7.0 mi Calm Calm - N/A   Clear
3:55 AM - - - N/A% 29.54 in 6.0 mi NNW 4.6 mph - N/A   Clear
4:15 AM 32.0 °F 26.4 °F 32.0 °F 100% 29.54 in 5.0 mi North 5.8 mph - N/A   Clear
4:35 AM 32.0 °F - 32.0 °F 100% 29.53 in 4.0 mi Calm Calm - N/A   Clear
4:55 AM 32.0 °F 26.4 °F 32.0 °F 100% 29.53 in 4.0 mi SSE 5.8 mph - N/A   Clear
5:15 AM 32.0 °F 28.7 °F 32.0 °F 100% 29.53 in 4.0 mi SSE 3.5 mph - N/A   Scattered Clouds
5:35 AM 30.2 °F 24.3 °F 30.2 °F 100% 29.52 in 3.0 mi North 5.8 mph - N/A   Scattered Clouds
5:55 AM 30.2 °F - 30.2 °F 100% 29.52 in 4.0 mi Calm Calm - N/A   Mostly Cloudy
6:15 AM 30.2 °F 26.7 °F 30.2 °F 100% 29.53 in 3.0 mi North 3.5 mph - N/A   Overcast
6:35 AM - - - N/A% 29.53 in 3.0 mi North 4.6 mph - N/A   Mostly Cloudy
6:55 AM 32.0 °F 23.6 °F 32.0 °F 100% 29.52 in 3.0 mi North 10.4 mph - N/A   Overcast
7:15 AM 32.0 °F 24.8 °F 32.0 °F 100% 29.52 in 3.0 mi NNE 8.1 mph - N/A   Overcast
7:35 AM 32.0 °F 24.8 °F 32.0 °F 100% 29.54 in 2.5 mi North 8.1 mph - N/A   Overcast
7:55 AM 32.0 °F 27.5 °F 32.0 °F 100% 29.55 in 2.0 mi NNE 4.6 mph - N/A   Mostly Cloudy
8:15 AM 32.0 °F 26.4 °F 32.0 °F 100% 29.56 in 2.0 mi NNE 5.8 mph - N/A   Partly Cloudy
8:35 AM 32.0 °F 24.2 °F 32.0 °F 100% 29.56 in 2.0 mi North 9.2 mph - N/A   Partly Cloudy
8:55 AM 32.0 °F 23.6 °F 32.0 °F 100% 29.56 in 2.0 mi NNE 10.4 mph - N/A   Mostly Cloudy
9:15 AM 32.0 °F 23.6 °F 32.0 °F 100% 29.57 in 2.0 mi NNE 10.4 mph - N/A   Overcast
9:35 AM 32.0 °F 21.6 °F 32.0 °F 100% 29.58 in 2.0 mi North 15.0 mph - N/A   Overcast
9:55 AM 33.8 °F 24.3 °F 33.8 °F 100% 29.58 in 2.0 mi North 13.8 mph - N/A   Overcast
10:15 AM 32.0 °F 22.5 °F 32.0 °F 100% 29.59 in 1.8 mi North 12.7 mph - N/A   Overcast
10:35 AM 33.8 °F 24.3 °F 33.8 °F 100% 29.59 in 1.8 mi NNE 13.8 mph - N/A   Overcast
10:55 AM 33.8 °F 24.3 °F 33.8 °F 100% 29.59 in 2.0 mi NNE 13.8 mph - N/A   Overcast
11:15 AM 33.8 °F 24.3 °F 33.8 °F 100% 29.58 in 2.5 mi NNE 13.8 mph - N/A   Overcast
11:35 AM 33.8 °F 24.3 °F 33.8 °F 100% 29.58 in 2.5 mi NNE 13.8 mph - N/A   Overcast
11:55 AM 33.8 °F 24.3 °F 33.8 °F 100% 29.57 in 2.5 mi NNE 13.8 mph - N/A   Overcast
12:15 PM 33.8 °F 25.3 °F 33.8 °F 100% 29.56 in 2.0 mi NNE 11.5 mph - N/A   Overcast
12:35 PM 35.6 °F 27.5 °F 35.6 °F 100% 29.55 in 1.5 mi NE 11.5 mph - N/A   Overcast
12:55 PM 35.6 °F 26.6 °F 35.6 °F 100% 29.55 in 1.0 mi NE 13.8 mph - N/A   Overcast
1:15 PM 35.6 °F 28.6 °F 35.6 °F 100% 29.56 in 1.0 mi NE 9.2 mph - N/A   Overcast
1:35 PM 35.6 °F 29.2 °F 35.6 °F 100% 29.56 in 1.0 mi NE 8.1 mph - N/A   Overcast
1:55 PM 37.4 °F 32.1 °F 37.4 °F 100% 29.56 in 0.8 mi NNE 6.9 mph - N/A   Overcast
2:15 PM 37.4 °F 30.8 °F 37.4 °F 100% 29.56 in 0.5 mi NNE 9.2 mph - N/A   Overcast
2:35 PM 35.6 °F 28.0 °F 35.6 °F 100% 29.57 in 0.8 mi North 10.4 mph - N/A   Overcast
2:55 PM 35.6 °F 29.2 °F 35.6 °F 100% 29.57 in 0.2 mi NNE 8.1 mph - N/A Fog Fog
3:15 PM 35.6 °F 29.2 °F 35.6 °F 100% 29.58 in 0.2 mi North 8.1 mph - N/A Fog Fog
3:35 PM 37.4 °F 30.8 °F 37.4 °F 100% 29.59 in 0.2 mi NNE 9.2 mph - N/A Fog Fog
3:55 PM 37.4 °F 32.1 °F 37.4 °F 100% 29.61 in 0.2 mi NNE 6.9 mph - N/A Fog Fog
4:15 PM 37.4 °F 32.1 °F 37.4 °F 100% 29.62 in 0.2 mi North 6.9 mph - N/A Fog Fog
4:35 PM 37.4 °F 32.1 °F 37.4 °F 100% 29.63 in 0.2 mi North 6.9 mph - N/A Fog Fog
4:55 PM 37.4 °F 30.8 °F 37.4 °F 100% 29.62 in 0.8 mi North 9.2 mph - N/A   Overcast
5:15 PM 35.6 °F 28.0 °F 35.6 °F 100% 29.60 in 0.8 mi NNE 10.4 mph - N/A   Overcast
5:35 PM 37.4 °F 30.3 °F 37.4 °F 100% 29.62 in 0.5 mi North 10.4 mph - N/A   Overcast
5:55 PM 37.4 °F 29.3 °F 37.4 °F 100% 29.62 in 0.8 mi NNE 12.7 mph - N/A   Overcast
6:15 PM 35.6 °F 27.1 °F 35.6 °F 100% 29.62 in 0.8 mi NNE 12.7 mph - N/A   Overcast
6:35 PM 35.6 °F 27.5 °F 35.6 °F 100% 29.63 in 0.8 mi North 11.5 mph - N/A   Overcast
6:55 PM 35.6 °F 27.5 °F 35.6 °F 100% 29.65 in 0.8 mi North 11.5 mph - N/A   Overcast
7:15 PM 35.6 °F 27.5 °F 35.6 °F 100% 29.67 in 0.5 mi North 11.5 mph - N/A   Overcast
7:35 PM 35.6 °F 26.6 °F 35.6 °F 100% 29.67 in 0.2 mi North 13.8 mph - N/A Fog Fog
7:55 PM 35.6 °F 27.5 °F 35.6 °F 100% 29.66 in 0.2 mi North 11.5 mph - N/A Fog Fog
8:15 PM 35.6 °F 28.0 °F 35.6 °F 100% 29.64 in 0.2 mi North 10.4 mph - N/A Fog Fog
8:35 PM 33.8 °F 24.8 °F 33.8 °F 100% 29.64 in 0.2 mi North 12.7 mph - N/A Fog Fog
8:55 PM 33.8 °F 25.8 °F 33.8 °F 100% 29.65 in 0.2 mi North 10.4 mph - N/A Fog Fog
9:15 PM 33.8 °F 26.4 °F 33.8 °F 100% 29.66 in 0.2 mi North 9.2 mph - N/A Fog Fog
9:35 PM 33.8 °F 24.3 °F 33.8 °F 100% 29.65 in 0.2 mi North 13.8 mph - N/A Fog Fog
9:55 PM 33.8 °F 25.3 °F 33.8 °F 100% 29.66 in 0.2 mi North 11.5 mph - N/A Fog Fog
10:15 PM 33.8 °F 26.4 °F 33.8 °F 100% 29.65 in 0.2 mi NNE 9.2 mph - N/A Fog Fog
10:35 PM 33.8 °F 27.7 °F 33.8 °F 100% 29.66 in 0.2 mi North 6.9 mph 12.7 mph N/A Fog Fog
10:55 PM 33.8 °F 27.0 °F 33.8 °F 100% 29.66 in 0.2 mi North 8.1 mph - 0.01 in Fog Fog
11:15 PM 33.8 °F 27.0 °F 33.8 °F 100% 29.66 in 0.2 mi North 8.1 mph - N/A Fog Fog
11:35 PM 33.8 °F 28.6 °F 33.8 °F 100% 29.65 in 0.2 mi NNE 5.8 mph - N/A Fog Fog
11:55 PM 33.8 °F 27.0 °F 33.8 °F 100% 29.64 in 0.2 mi NE 8.1 mph - N/A Fog Fog